Time,TemperatureF,DewpointF,PressureIn,WindDirection,WindDirectionDegrees,WindSpeedMPH,WindSpeedGustMPH,Humidity,HourlyPrecipIn,Conditions,Clouds,dailyrainin,SoftwareType,DateUTC
2013-09-19 00:12:00,52.0,38.0,29.76,West,281,4.0,12.0,59,0.00,,,0.00,,2013-09-19 06:12:00,
2013-09-19 00:22:00,51.0,38.0,29.77,North,350,2.0,4.0,61,0.00,,,0.00,,2013-09-19 06:22:00,
2013-09-19 00:43:00,50.0,39.0,29.77,North,350,0.0,3.0,66,0.00,,,0.00,,2013-09-19 06:43:00,
2013-09-19 00:52:00,48.0,38.0,29.77,NW,309,4.0,7.0,68,0.00,,,0.00,,2013-09-19 06:52:00,
2013-09-19 01:11:00,48.0,38.0,29.77,WNW,299,3.0,7.0,69,0.00,,,0.00,,2013-09-19 07:11:00,
2013-09-19 01:21:00,47.0,38.0,29.78,West,266,3.0,5.0,71,0.00,,,0.00,,2013-09-19 07:21:00,
2013-09-19 01:42:00,49.0,39.0,29.78,WNW,298,2.0,5.0,67,0.00,,,0.00,,2013-09-19 07:42:00,
2013-09-19 01:52:00,48.0,38.0,29.78,WNW,290,2.0,6.0,69,0.00,,,0.00,,2013-09-19 07:52:00,
2013-09-19 02:11:00,48.0,38.0,29.79,NNW,329,4.0,8.0,68,0.00,,,0.00,,2013-09-19 08:11:00,
2013-09-19 02:21:00,48.0,39.0,29.80,NW,317,2.0,5.0,71,0.00,,,0.00,,2013-09-19 08:21:00,
2013-09-19 02:52:00,48.0,38.0,29.81,WNW,294,5.0,9.0,67,0.00,,,0.00,,2013-09-19 08:52:00,
2013-09-19 03:11:00,47.0,38.0,29.81,WNW,296,3.0,5.0,71,0.00,,,0.00,,2013-09-19 09:11:00,
2013-09-19 03:21:00,47.0,38.0,29.82,NW,316,3.0,6.0,70,0.00,,,0.00,,2013-09-19 09:21:00,
2013-09-19 03:53:00,46.0,37.0,29.82,West,271,2.0,5.0,70,0.00,,,0.00,,2013-09-19 09:53:00,
2013-09-19 04:12:00,46.0,36.0,29.83,NW,304,6.0,8.0,69,0.00,,,0.00,,2013-09-19 10:12:00,
2013-09-19 04:23:00,46.0,36.0,29.83,WNW,289,4.0,7.0,69,0.00,,,0.00,,2013-09-19 10:23:00,
2013-09-19 04:43:00,46.0,37.0,29.84,WNW,300,0.0,5.0,70,0.00,,,0.00,,2013-09-19 10:43:00,
2013-09-19 04:52:00,44.0,37.0,29.85,WNW,300,1.0,3.0,76,0.00,,,0.00,,2013-09-19 10:52:00,
2013-09-19 05:11:00,42.0,37.0,29.85,WNW,300,1.0,4.0,81,0.00,,,0.00,,2013-09-19 11:11:00,
2013-09-19 05:22:00,42.0,37.0,29.87,WNW,300,3.0,4.0,81,0.00,,,0.00,,2013-09-19 11:22:00,
2013-09-19 05:42:00,43.0,38.0,29.86,WNW,300,2.0,4.0,81,0.00,,,0.00,,2013-09-19 11:42:00,
2013-09-19 05:52:00,43.0,37.0,29.87,WNW,299,2.0,6.0,80,0.00,,,0.00,,2013-09-19 11:52:00,
2013-09-19 06:11:00,42.0,36.0,29.87,WNW,299,3.0,5.0,80,0.00,,,0.00,,2013-09-19 12:11:00,
2013-09-19 06:21:00,42.0,36.0,29.88,NW,311,4.0,7.0,80,0.00,,,0.00,,2013-09-19 12:21:00,
2013-09-19 06:43:00,42.0,36.0,29.89,WNW,296,4.0,8.0,79,0.00,,,0.00,,2013-09-19 12:43:00,
2013-09-19 06:52:00,42.0,36.0,29.90,WNW,295,2.0,4.0,80,0.00,,,0.00,,2013-09-19 12:52:00,
2013-09-19 07:11:00,41.0,36.0,29.90,WNW,294,3.0,4.0,81,0.00,,,0.00,,2013-09-19 13:11:00,
2013-09-19 07:21:00,41.0,36.0,29.91,WNW,295,1.0,4.0,82,0.00,,,0.00,,2013-09-19 13:21:00,
2013-09-19 07:42:00,41.0,36.0,29.91,WNW,296,3.0,5.0,81,0.00,,,0.00,,2013-09-19 13:42:00,
2013-09-19 07:52:00,41.0,36.0,29.91,NW,309,2.0,6.0,83,0.00,,,0.00,,2013-09-19 13:52:00,
2013-09-19 08:12:00,42.0,37.0,29.92,NW,308,1.0,3.0,82,0.00,,,0.00,,2013-09-19 14:12:00,
2013-09-19 08:22:00,43.0,38.0,29.92,NW,308,1.0,3.0,82,0.00,,,0.00,,2013-09-19 14:22:00,
2013-09-19 08:52:00,44.0,38.0,29.94,West,280,1.0,3.0,79,0.00,,,0.00,,2013-09-19 14:52:00,
2013-09-19 09:11:00,47.0,39.0,29.95,NE,55,6.0,8.0,73,0.00,,,0.00,,2013-09-19 15:11:00,
2013-09-19 09:21:00,47.0,38.0,29.95,NNE,26,4.0,7.0,71,0.00,,,0.00,,2013-09-19 15:21:00,
2013-09-19 09:43:00,47.0,38.0,29.96,NNE,27,2.0,6.0,72,0.00,,,0.00,,2013-09-19 15:43:00,
2013-09-19 09:53:00,47.0,38.0,29.96,NE,45,4.0,7.0,72,0.00,,,0.00,,2013-09-19 15:53:00,
2013-09-19 10:03:00,47.0,38.0,29.96,NE,45,4.0,7.0,72,0.00,,,0.00,,2013-09-19 16:03:00,
2013-09-19 10:23:00,47.0,38.0,29.97,ENE,59,5.0,7.0,71,0.00,,,0.00,,2013-09-19 16:23:00,
2013-09-19 10:42:00,48.0,39.0,29.98,ENE,59,3.0,7.0,70,0.00,,,0.00,,2013-09-19 16:42:00,
2013-09-19 10:52:00,49.0,39.0,29.98,NE,46,1.0,6.0,68,0.00,,,0.00,,2013-09-19 16:52:00,
2013-09-19 11:12:00,51.0,39.0,29.98,East,94,3.0,5.0,63,0.00,,,0.00,,2013-09-19 17:12:00,
2013-09-19 11:23:00,53.0,40.0,29.98,East,95,1.0,6.0,61,0.00,,,0.00,,2013-09-19 17:23:00,
2013-09-19 11:53:00,54.0,40.0,29.98,East,87,2.0,7.0,58,0.00,,,0.00,,2013-09-19 17:53:00,
2013-09-19 12:11:00,54.0,40.0,29.97,ESE,121,3.0,5.0,59,0.00,,,0.00,,2013-09-19 18:11:00,
2013-09-19 12:22:00,54.0,40.0,29.97,East,86,3.0,8.0,58,0.00,,,0.00,,2013-09-19 18:22:00,
2013-09-19 12:42:00,56.0,40.0,29.97,East,92,2.0,5.0,54,0.00,,,0.00,,2013-09-19 18:42:00,
2013-09-19 12:52:00,56.0,39.0,29.97,ENE,57,1.0,5.0,53,0.00,,,0.00,,2013-09-19 18:52:00,
2013-09-19 13:12:00,57.0,40.0,29.97,NNE,31,4.0,9.0,53,0.00,,,0.00,,2013-09-19 19:12:00,
2013-09-19 13:21:00,57.0,40.0,29.96,ENE,69,6.0,10.0,52,0.00,,,0.00,,2013-09-19 19:21:00,
2013-09-19 13:52:00,58.0,39.0,29.97,East,80,3.0,7.0,49,0.00,,,0.00,,2013-09-19 19:52:00,
2013-09-19 14:12:00,58.0,37.0,29.96,West,277,2.0,9.0,46,0.00,,,0.00,,2013-09-19 20:12:00,
2013-09-19 14:21:00,59.0,37.0,29.96,ENE,63,5.0,8.0,44,0.00,,,0.00,,2013-09-19 20:21:00,
2013-09-19 14:42:00,59.0,38.0,29.96,East,94,2.0,6.0,45,0.00,,,0.00,,2013-09-19 20:42:00,
2013-09-19 14:52:00,60.0,37.0,29.96,NW,318,2.0,8.0,42,0.00,,,0.00,,2013-09-19 20:52:00,
2013-09-19 15:11:00,60.0,37.0,29.95,NE,51,3.0,11.0,42,0.00,,,0.00,,2013-09-19 21:11:00,
2013-09-19 15:22:00,61.0,37.0,29.95,NNE,24,1.0,4.0,41,0.00,,,0.00,,2013-09-19 21:22:00,
2013-09-19 15:44:00,61.0,37.0,29.94,ENE,61,4.0,9.0,41,0.00,,,0.00,,2013-09-19 21:44:00,
2013-09-19 15:55:00,62.0,37.0,29.95,NE,53,3.0,6.0,39,0.00,,,0.00,,2013-09-19 21:55:00,
2013-09-19 16:14:00,61.0,35.0,29.95,North,355,4.0,9.0,38,0.00,,,0.00,,2013-09-19 22:14:00,
2013-09-19 16:24:00,61.0,36.0,29.95,NNE,26,5.0,12.0,39,0.00,,,0.00,,2013-09-19 22:24:00,
2013-09-19 16:53:00,61.0,36.0,29.95,NE,41,3.0,14.0,40,0.00,,,0.00,,2013-09-19 22:53:00,
2013-09-19 17:12:00,62.0,38.0,29.95,NE,48,5.0,10.0,41,0.00,,,0.00,,2013-09-19 23:12:00,
2013-09-19 17:22:00,62.0,37.0,29.94,NNE,19,2.0,8.0,40,0.00,,,0.00,,2013-09-19 23:22:00,
2013-09-19 17:42:00,61.0,37.0,29.94,NE,39,6.0,9.0,41,0.00,,,0.00,,2013-09-19 23:42:00,
2013-09-19 17:53:00,61.0,37.0,29.94,NE,39,6.0,9.0,41,0.00,,,0.00,,2013-09-19 23:53:00,
2013-09-19 18:12:00,61.0,37.0,29.94,NE,37,5.0,8.0,41,0.00,,,0.00,,2013-09-20 00:12:00,
2013-09-19 18:21:00,59.0,37.0,29.95,NE,45,4.0,7.0,44,0.00,,,0.00,,2013-09-20 00:21:00,
2013-09-19 18:42:00,60.0,37.0,29.94,NE,44,4.0,7.0,43,0.00,,,0.00,,2013-09-20 00:42:00,
2013-09-19 18:52:00,59.0,37.0,29.95,NE,48,5.0,9.0,44,0.00,,,0.00,,2013-09-20 00:52:00,
2013-09-19 19:12:00,57.0,37.0,29.94,NNE,30,3.0,7.0,47,0.00,,,0.00,,2013-09-20 01:12:00,
2013-09-19 19:22:00,57.0,39.0,29.95,NNE,30,0.0,1.0,51,0.00,,,0.00,,2013-09-20 01:22:00,
2013-09-19 19:42:00,56.0,39.0,29.95,NNE,30,2.0,3.0,52,0.00,,,0.00,,2013-09-20 01:42:00,
2013-09-19 19:52:00,54.0,39.0,29.95,NW,304,5.0,9.0,56,0.00,,,0.00,,2013-09-20 01:52:00,
2013-09-19 20:11:00,52.0,38.0,29.95,NW,309,7.0,10.0,59,0.00,,,0.00,,2013-09-20 02:11:00,
2013-09-19 20:22:00,52.0,38.0,29.95,NW,306,6.0,8.0,59,0.00,,,0.00,,2013-09-20 02:22:00,
2013-09-19 20:42:00,52.0,39.0,29.95,WNW,295,5.0,8.0,60,0.00,,,0.00,,2013-09-20 02:42:00,
2013-09-19 20:52:00,51.0,38.0,29.95,NW,311,5.0,8.0,60,0.00,,,0.00,,2013-09-20 02:52:00,
2013-09-19 21:12:00,51.0,38.0,29.96,NW,314,6.0,8.0,61,0.00,,,0.00,,2013-09-20 03:12:00,
2013-09-19 21:22:00,51.0,38.0,29.96,NW,308,5.0,8.0,60,0.00,,,0.00,,2013-09-20 03:22:00,
2013-09-19 21:45:00,51.0,38.0,29.96,WNW,298,6.0,8.0,60,0.00,,,0.00,,2013-09-20 03:45:00,
2013-09-19 21:55:00,51.0,37.0,29.96,NW,307,4.0,7.0,59,0.00,,,0.00,,2013-09-20 03:55:00,
2013-09-19 22:14:00,51.0,37.0,29.96,WNW,302,3.0,6.0,59,0.00,,,0.00,,2013-09-20 04:14:00,
2013-09-19 22:24:00,51.0,38.0,29.96,WNW,302,2.0,4.0,60,0.00,,,0.00,,2013-09-20 04:24:00,
2013-09-19 22:44:00,50.0,37.0,29.96,NW,310,3.0,6.0,61,0.00,,,0.00,,2013-09-20 04:44:00,
2013-09-19 22:53:00,50.0,37.0,29.96,NW,312,4.0,7.0,60,0.00,,,0.00,,2013-09-20 04:53:00,
2013-09-19 23:13:00,50.0,37.0,29.96,NW,310,5.0,7.0,60,0.00,,,0.00,,2013-09-20 05:13:00,
2013-09-19 23:23:00,50.0,37.0,29.96,WNW,296,4.0,7.0,61,0.00,,,0.00,,2013-09-20 05:23:00,
2013-09-19 23:53:00,49.0,37.0,29.96,WNW,298,6.0,9.0,63,0.00,,,0.00,,2013-09-20 05:53:00,